Tracking 35274 objects as of 10-Sep-2026
HD Live streaming from Space Station
objects crossing your sky now

COSMOS 2380 (GLONASS)

Track COSMOS 2380 (GLONASS) now!
COSMOS 2380 (GLONASS) is classified as:


NORAD ID: 26989
Int'l Code: 2001-053C
Launch date: December 1, 2001
Source: Commonwealth of Independent States (former USSR) (CIS)
Launch site: TYURATAM MISSILE AND SPACE COMPLEX (TTMTR)
Your satellite tracking list
Your tracking list is empty




NASA's NSSDC Master Catalog

Two Line Element Set (TLE):
1 26989U 01053C   26246.00769932  .00000009  00000-0  00000-0 0  9998
2 26989  64.1382  54.6690 0006269  53.9160 329.6681  2.13102632192677
Source of the keplerian elements: AFSPC